Starlink 11295

operational
NORAD ID: 61536 Int'l Des: 2024-184 Owner: SPXS Country: US Constellation: starlink
LEOCIRCULAR

About Starlink 11295

Description loading...

Live Position

Loading 3D Globe...

Upcoming Passes

Altitude History

Altitude vs Time

uPlot chart will show altitude changes over time

Two-Line Element Set

1 61536U 24184E 25305.93833957 -.00001873 00000-0 -10620-4 0 9996
2 61536 53.1598 145.9502 0000778 124.5532 235.5560 15.69687767 60356
Epoch: Nov 1, 2025 • Age: 47 hours

Current Status

Altitude 361.8 km
Velocity 7.69 km/s
Sub-Earth Point -7.73°S, 38.71°W
Launch Date Oct 15, 2024
Age 1 years
Type internet

Technical Details

Classification Payload
Mass 960.00 kg
Dry Mass 910.00 kg
Total Mass 960.00 kg
Length 0.30 m
Diameter 4.10 m
Span 29.00 m
Shape Box + pan
Manufacturer SPXS
Bus Type Starlink V2MD
Phase Status In Orbit
Owner/State SPXS/US

Large Constellations

Loading constellations...